Location: Street
(51.1247°N, 2.7429°W)
Time: 08:59:13
(UTC+00:00)

Tiros 1 - Pass Details

Date: 04 December 2020
Orbit: 630 x 663 km, 48.4° (Epoch: 21 January)

Event Time Altitude Azimuth Distance (km) Brightness Sun altitude
Rises 13:54:29 0° 227° (SW) 2,985 12.0 12.4°
Reaches altitude 10° 13:56:59 10° 218° (SW) 2,077 12.1 12.3°
Maximum altitude 14:01:19 34° 154° (SSE) 1,084 8.9 11.9°
Drops below altitude 10° 14:05:38 10° 89° (E) 2,080 9.5 11.6°
Sets 14:08:09 0° 81° (E) 2,992 10.2 11.4°
